User: anonymous   Login
Location: Unspecified
(0.0000°N, 0.0000°E)
Time: 18:55:18
(UTC+00:00)
Language:

ALMASAT-1 - Orbit

View from above orbital plane
View from above orbital plane
View from above satellite
View from above satellite

Ground track
Ground track

The orbit data is extracted from the following two-line orbital elements,

1 38078U 12006B   19341.56888751  .00041836  46996-5  15907-3 0  9997
2 38078  69.4207 130.1192 0113305 350.6374  79.1039 15.78329084424459
Epoch (UTC): 07 December 2019 13:39:11
Eccentricity: 0.0113305
inclination: 69.4207°
perigee height: 259 km
apogee height: 411 km
right ascension of ascending node: 130.1192°
argument of perigee: 350.6374°
revolutions per day: 15.78329084
mean anomaly at epoch: 79.1039°
orbit number at epoch: 42445

The dashed part of the orbit path shows where the satellite is in the earth's shadow,  

DLR